contact:dominique.lefevre@mio.osupytheas.fr, maurice.libes@osupytheas.fr, didier.mallarino@osupytheas.fr
Project:EMSO http://www.emso-fr.org/EMSO-France
Depth: 2436.0 m
Title:EMSO Ligure Ouest : Data MII capteur MICROCAT
DateTime_Computer,Latitude,Longitude,Temperature,Conductivity,Pressure,DateTime_Instrument
DateTime_Computer,Latitude,Longitude,degC,S m-1,dbar,DateTime_Instrument
2022-03-08T00:01:09Z,42.805,6.029,13.2996,4.60028,2470.591,2022-3-08T02:02:44Z
2022-03-08T00:04:12Z,42.805,6.029,13.2996,4.60029,2470.553,2022-3-08T02:05:47Z
2022-03-08T00:07:15Z,42.805,6.029,13.2997,4.60029,2470.591,2022-3-08T02:08:50Z
2022-03-08T00:10:18Z,42.805,6.029,13.2996,4.60029,2470.53,2022-3-08T02:11:53Z
2022-03-08T00:13:21Z,42.805,6.029,13.2994,4.60029,2470.53,2022-3-08T02:14:57Z
2022-03-08T00:16:24Z,42.805,6.029,13.2998,4.60026,2470.553,2022-3-08T02:18:00Z
2022-03-08T00:19:27Z,42.805,6.029,13.2997,4.60027,2470.544,2022-3-08T02:21:03Z
2022-03-08T00:22:31Z,42.805,6.029,13.2994,4.60034,2470.553,2022-3-08T02:24:06Z
2022-03-08T00:25:34Z,42.805,6.029,13.2998,4.60031,2470.544,2022-3-08T02:27:09Z
2022-03-08T00:28:37Z,42.805,6.029,13.2994,4.60028,2470.52,2022-3-08T02:30:12Z
2022-03-08T00:31:40Z,42.805,6.029,13.2999,4.60027,2470.53,2022-3-08T02:33:15Z
2022-03-08T00:34:43Z,42.805,6.029,13.2994,4.60029,2470.52,2022-3-08T02:36:18Z
2022-03-08T00:37:46Z,42.805,6.029,13.2993,4.60027,2470.507,2022-3-08T02:39:21Z
2022-03-08T00:40:49Z,42.805,6.029,13.2998,4.60029,2470.53,2022-3-08T02:42:25Z
2022-03-08T00:43:52Z,42.805,6.029,13.2994,4.60029,2470.53,2022-3-08T02:45:28Z
2022-03-08T00:46:56Z,42.805,6.029,13.2996,4.60031,2470.52,2022-3-08T02:48:31Z
2022-03-08T00:49:59Z,42.805,6.029,13.2998,4.60029,2470.544,2022-3-08T02:51:34Z
2022-03-08T00:53:02Z,42.805,6.029,13.2996,4.60029,2470.53,2022-3-08T02:54:37Z
2022-03-08T00:56:05Z,42.805,6.029,13.2998,4.60031,2470.553,2022-3-08T02:57:40Z
2022-03-08T00:59:08Z,42.805,6.029,13.3000,4.60029,2470.544,2022-3-08T03:00:43Z
2022-03-08T01:02:11Z,42.805,6.029,13.2996,4.60029,2470.52,2022-3-08T03:03:46Z
2022-03-08T01:05:14Z,42.805,6.029,13.2999,4.60028,2470.507,2022-3-08T03:06:50Z
2022-03-08T01:08:17Z,42.805,6.029,13.2996,4.60031,2470.483,2022-3-08T03:09:53Z
2022-03-08T01:11:20Z,42.805,6.029,13.2996,4.60028,2470.483,2022-3-08T03:12:56Z
2022-03-08T01:14:24Z,42.805,6.029,13.2993,4.60029,2470.544,2022-3-08T03:15:59Z
2022-03-08T01:17:27Z,42.805,6.029,13.2998,4.60029,2470.544,2022-3-08T03:19:02Z
2022-03-08T01:20:30Z,42.805,6.029,13.2999,4.60031,2470.507,2022-3-08T03:22:05Z
2022-03-08T01:23:33Z,42.805,6.029,13.2995,4.60029,2470.53,2022-3-08T03:25:08Z
2022-03-08T01:26:36Z,42.805,6.029,13.2996,4.60034,2470.52,2022-3-08T03:28:11Z
2022-03-08T01:29:39Z,42.805,6.029,13.2997,4.60029,2470.507,2022-3-08T03:31:14Z
2022-03-08T01:32:42Z,42.805,6.029,13.2996,4.60029,2470.52,2022-3-08T03:34:18Z
2022-03-08T01:35:45Z,42.805,6.029,13.3001,4.60031,2470.52,2022-3-08T03:37:21Z
2022-03-08T01:38:48Z,42.805,6.029,13.2994,4.60031,2470.497,2022-3-08T03:40:24Z
2022-03-08T01:41:52Z,42.805,6.029,13.2998,4.60033,2470.483,2022-3-08T03:43:27Z
2022-03-08T01:44:55Z,42.805,6.029,13.2996,4.60029,2470.507,2022-3-08T03:46:30Z
2022-03-08T01:47:58Z,42.805,6.029,13.2997,4.60031,2470.507,2022-3-08T03:49:33Z
2022-03-08T01:51:01Z,42.805,6.029,13.2996,4.60031,2470.53,2022-3-08T03:52:36Z
2022-03-08T01:54:04Z,42.805,6.029,13.2996,4.60029,2470.497,2022-3-08T03:55:39Z
2022-03-08T01:57:07Z,42.805,6.029,13.2994,4.60028,2470.483,2022-3-08T03:58:43Z
2022-03-08T02:00:10Z,42.805,6.029,13.2994,4.60027,2470.507,2022-3-08T04:01:46Z
2022-03-08T02:03:13Z,42.805,6.029,13.2996,4.60029,2470.507,2022-3-08T04:04:49Z
2022-03-08T02:06:17Z,42.805,6.029,13.2995,4.60028,2470.544,2022-3-08T04:07:52Z
2022-03-08T02:09:20Z,42.805,6.029,13.2998,4.60029,2470.483,2022-3-08T04:10:55Z
2022-03-08T02:12:23Z,42.805,6.029,13.2995,4.60027,2470.483,2022-3-08T04:13:58Z
2022-03-08T02:15:26Z,42.805,6.029,13.2994,4.60031,2470.507,2022-3-08T04:17:01Z
2022-03-08T02:18:29Z,42.805,6.029,13.2996,4.60029,2470.52,2022-3-08T04:20:04Z
2022-03-08T02:21:32Z,42.805,6.029,13.2996,4.60029,2470.497,2022-3-08T04:23:07Z
2022-03-08T02:24:35Z,42.805,6.029,13.2996,4.60029,2470.497,2022-3-08T04:26:11Z
2022-03-08T02:27:38Z,42.805,6.029,13.2999,4.60029,2470.483,2022-3-08T04:29:14Z
2022-03-08T02:30:42Z,42.805,6.029,13.2996,4.60028,2470.483,2022-3-08T04:32:17Z
2022-03-08T02:33:45Z,42.805,6.029,13.2991,4.60030,2470.52,2022-3-08T04:35:20Z
2022-03-08T02:36:48Z,42.805,6.029,13.2995,4.60031,2470.52,2022-3-08T04:38:23Z
2022-03-08T02:39:51Z,42.805,6.029,13.3000,4.60030,2470.483,2022-3-08T04:41:26Z
2022-03-08T02:42:54Z,42.805,6.029,13.2998,4.60029,2470.497,2022-3-08T04:44:29Z
2022-03-08T02:45:57Z,42.805,6.029,13.2997,4.60029,2470.507,2022-3-08T04:47:32Z
2022-03-08T02:49:00Z,42.805,6.029,13.2996,4.60028,2470.483,2022-3-08T04:50:36Z
2022-03-08T02:52:03Z,42.805,6.029,13.2997,4.60031,2470.507,2022-3-08T04:53:39Z
2022-03-08T02:55:06Z,42.805,6.029,13.2996,4.60028,2470.497,2022-3-08T04:56:42Z
2022-03-08T02:58:10Z,42.805,6.029,13.2998,4.60029,2470.483,2022-3-08T04:59:45Z
2022-03-08T03:01:13Z,42.805,6.029,13.2998,4.60029,2470.53,2022-3-08T05:02:48Z
2022-03-08T03:04:16Z,42.805,6.029,13.2998,4.60029,2470.483,2022-3-08T05:05:51Z
2022-03-08T03:07:19Z,42.805,6.029,13.2998,4.60031,2470.474,2022-3-08T05:08:54Z
2022-03-08T03:10:22Z,42.805,6.029,13.2998,4.60029,2470.483,2022-3-08T05:11:57Z
2022-03-08T03:13:25Z,42.805,6.029,13.3000,4.60028,2470.52,2022-3-08T05:15:00Z
2022-03-08T03:16:28Z,42.805,6.029,13.3000,4.60029,2470.483,2022-3-08T05:18:04Z
2022-03-08T03:19:31Z,42.805,6.029,13.2996,4.60030,2470.507,2022-3-08T05:21:07Z
2022-03-08T03:22:35Z,42.805,6.029,13.3000,4.60030,2470.474,2022-3-08T05:24:10Z
2022-03-08T03:25:38Z,42.805,6.029,13.2996,4.60029,2470.483,2022-3-08T05:27:13Z
2022-03-08T03:28:41Z,42.805,6.029,13.3000,4.60030,2470.46,2022-3-08T05:30:16Z
2022-03-08T03:31:44Z,42.805,6.029,13.2999,4.60029,2470.497,2022-3-08T05:33:19Z
2022-03-08T03:34:47Z,42.805,6.029,13.2996,4.60029,2470.483,2022-3-08T05:36:22Z
2022-03-08T03:37:50Z,42.805,6.029,13.2998,4.60029,2470.483,2022-3-08T05:39:25Z
2022-03-08T03:40:53Z,42.805,6.029,13.2997,4.60029,2470.483,2022-3-08T05:42:29Z
2022-03-08T03:43:56Z,42.805,6.029,13.2996,4.60031,2470.507,2022-3-08T05:45:32Z
2022-03-08T03:47:00Z,42.805,6.029,13.2998,4.60029,2470.483,2022-3-08T05:48:35Z
2022-03-08T03:50:03Z,42.805,6.029,13.2998,4.60030,2470.483,2022-3-08T05:51:38Z
2022-03-08T03:53:06Z,42.805,6.029,13.3001,4.60031,2470.497,2022-3-08T05:54:41Z
2022-03-08T03:56:09Z,42.805,6.029,13.2998,4.60029,2470.497,2022-3-08T05:57:44Z
2022-03-08T03:59:12Z,42.805,6.029,13.2998,4.60029,2470.497,2022-3-08T06:00:47Z
2022-03-08T04:02:15Z,42.805,6.029,13.2998,4.60029,2470.483,2022-3-08T06:03:50Z
2022-03-08T04:05:18Z,42.805,6.029,13.2998,4.60030,2470.474,2022-3-08T06:06:53Z
2022-03-08T04:08:21Z,42.805,6.029,13.2996,4.60030,2470.474,2022-3-08T06:09:57Z
2022-03-08T04:11:24Z,42.805,6.029,13.2999,4.60030,2470.46,2022-3-08T06:13:00Z
2022-03-08T04:14:28Z,42.805,6.029,13.3001,4.60029,2470.45,2022-3-08T06:16:03Z
2022-03-08T04:17:31Z,42.805,6.029,13.2998,4.60029,2470.46,2022-3-08T06:19:06Z
2022-03-08T04:20:34Z,42.805,6.029,13.3000,4.60031,2470.437,2022-3-08T06:22:09Z
2022-03-08T04:23:37Z,42.805,6.029,13.2995,4.60029,2470.483,2022-3-08T06:25:12Z
2022-03-08T04:26:40Z,42.805,6.029,13.2996,4.60029,2470.507,2022-3-08T06:28:15Z
2022-03-08T04:29:43Z,42.805,6.029,13.2997,4.60031,2470.437,2022-3-08T06:31:18Z
2022-03-08T04:32:46Z,42.805,6.029,13.2997,4.60029,2470.46,2022-3-08T06:34:22Z
2022-03-08T04:35:49Z,42.805,6.029,13.2997,4.60029,2470.474,2022-3-08T06:37:25Z
2022-03-08T04:38:53Z,42.805,6.029,13.2998,4.60031,2470.46,2022-3-08T06:40:28Z
2022-03-08T04:41:56Z,42.805,6.029,13.2996,4.60029,2470.497,2022-3-08T06:43:31Z
2022-03-08T04:44:59Z,42.805,6.029,13.2999,4.60030,2470.474,2022-3-08T06:46:34Z
2022-03-08T04:48:02Z,42.805,6.029,13.2997,4.60029,2470.474,2022-3-08T06:49:37Z
2022-03-08T04:51:05Z,42.805,6.029,13.2991,4.60028,2470.46,2022-3-08T06:52:40Z
2022-03-08T04:54:08Z,42.805,6.029,13.2999,4.60029,2470.464,2022-3-08T06:55:43Z
2022-03-08T04:57:11Z,42.805,6.029,13.2999,4.60029,2470.483,2022-3-08T06:58:46Z
2022-03-08T05:00:14Z,42.805,6.029,13.2997,4.60029,2470.46,2022-3-08T07:01:50Z
2022-03-08T05:03:17Z,42.805,6.029,13.2997,4.60028,2470.46,2022-3-08T07:04:53Z
2022-03-08T05:06:21Z,42.805,6.029,13.2996,4.60027,2470.46,2022-3-08T07:07:56Z
2022-03-08T05:09:24Z,42.805,6.029,13.2997,4.60028,2470.483,2022-3-08T07:10:59Z
2022-03-08T05:12:27Z,42.805,6.029,13.2996,4.60029,2470.46,2022-3-08T07:14:02Z
2022-03-08T05:15:30Z,42.805,6.029,13.2996,4.60028,2470.46,2022-3-08T07:17:05Z
2022-03-08T05:18:33Z,42.805,6.029,13.2999,4.60029,2470.437,2022-3-08T07:20:08Z
2022-03-08T05:21:36Z,42.805,6.029,13.3000,4.60029,2470.483,2022-3-08T07:23:11Z
2022-03-08T05:24:39Z,42.805,6.029,13.2998,4.60029,2470.474,2022-3-08T07:26:15Z
2022-03-08T05:27:42Z,42.805,6.029,13.3000,4.60029,2470.46,2022-3-08T07:29:18Z
2022-03-08T05:30:46Z,42.805,6.029,13.2998,4.60028,2470.46,2022-3-08T07:32:21Z
2022-03-08T05:33:49Z,42.805,6.029,13.2997,4.60028,2470.45,2022-3-08T07:35:24Z
2022-03-08T05:36:52Z,42.805,6.029,13.2998,4.60026,2470.46,2022-3-08T07:38:27Z
2022-03-08T05:39:55Z,42.805,6.029,13.2994,4.60026,2470.52,2022-3-08T07:41:30Z
2022-03-08T05:42:58Z,42.805,6.029,13.2998,4.60028,2470.483,2022-3-08T07:44:33Z
2022-03-08T05:46:01Z,42.805,6.029,13.2994,4.60026,2470.46,2022-3-08T07:47:36Z
2022-03-08T05:49:04Z,42.805,6.029,13.2998,4.60027,2470.474,2022-3-08T07:50:39Z
2022-03-08T05:52:07Z,42.805,6.029,13.2997,4.60028,2470.46,2022-3-08T07:53:43Z
2022-03-08T05:55:10Z,42.805,6.029,13.2996,4.60026,2470.483,2022-3-08T07:56:46Z
2022-03-08T05:58:14Z,42.805,6.029,13.2993,4.60026,2470.46,2022-3-08T07:59:49Z
2022-03-08T06:01:17Z,42.805,6.029,13.2998,4.60027,2470.437,2022-3-08T08:02:52Z
2022-03-08T06:04:20Z,42.805,6.029,13.2995,4.60026,2470.483,2022-3-08T08:05:55Z
2022-03-08T06:07:23Z,42.805,6.029,13.2998,4.60026,2470.46,2022-3-08T08:08:58Z
2022-03-08T06:10:26Z,42.805,6.029,13.2996,4.60026,2470.497,2022-3-08T08:12:01Z
2022-03-08T06:13:29Z,42.805,6.029,13.2998,4.60026,2470.497,2022-3-08T08:15:04Z
2022-03-08T06:16:32Z,42.805,6.029,13.2998,4.60028,2470.474,2022-3-08T08:18:08Z
2022-03-08T06:19:35Z,42.805,6.029,13.2994,4.60027,2470.46,2022-3-08T08:21:11Z
2022-03-08T06:22:39Z,42.805,6.029,13.2997,4.60026,2470.497,2022-3-08T08:24:14Z
2022-03-08T06:25:42Z,42.805,6.029,13.2994,4.60026,2470.483,2022-3-08T08:27:17Z
2022-03-08T06:28:45Z,42.805,6.029,13.2996,4.60028,2470.46,2022-3-08T08:30:20Z
2022-03-08T06:31:48Z,42.805,6.029,13.2997,4.60027,2470.497,2022-3-08T08:33:23Z
2022-03-08T06:34:51Z,42.805,6.029,13.2998,4.60026,2470.46,2022-3-08T08:36:26Z
2022-03-08T06:37:54Z,42.805,6.029,13.2999,4.60027,2470.483,2022-3-08T08:39:29Z
2022-03-08T06:40:57Z,42.805,6.029,13.2997,4.60026,2470.497,2022-3-08T08:42:33Z
2022-03-08T06:44:00Z,42.805,6.029,13.2998,4.60029,2470.507,2022-3-08T08:45:36Z
2022-03-08T06:47:03Z,42.805,6.029,13.2997,4.60026,2470.507,2022-3-08T08:48:39Z
2022-03-08T06:50:07Z,42.805,6.029,13.2996,4.60027,2470.46,2022-3-08T08:51:42Z
2022-03-08T06:53:10Z,42.805,6.029,13.2999,4.60029,2470.483,2022-3-08T08:54:45Z
2022-03-08T06:56:13Z,42.805,6.029,13.2999,4.60027,2470.46,2022-3-08T08:57:48Z
2022-03-08T06:59:16Z,42.805,6.029,13.2994,4.60026,2470.47,2022-3-08T09:00:51Z
2022-03-08T07:02:19Z,42.805,6.029,13.3000,4.60027,2470.52,2022-3-08T09:03:54Z
2022-03-08T07:05:22Z,42.805,6.029,13.2995,4.60027,2470.507,2022-3-08T09:06:57Z
2022-03-08T07:08:25Z,42.805,6.029,13.2998,4.60027,2470.483,2022-3-08T09:10:01Z
2022-03-08T07:11:28Z,42.805,6.029,13.2995,4.60027,2470.497,2022-3-08T09:13:04Z
2022-03-08T07:14:32Z,42.805,6.029,13.2998,4.60026,2470.483,2022-3-08T09:16:07Z
2022-03-08T07:17:35Z,42.805,6.029,13.2997,4.60027,2470.507,2022-3-08T09:19:10Z
2022-03-08T07:20:38Z,42.805,6.029,13.2997,4.60026,2470.47,2022-3-08T09:22:13Z
2022-03-08T07:23:41Z,42.805,6.029,13.2998,4.60029,2470.52,2022-3-08T09:25:16Z
2022-03-08T07:26:44Z,42.805,6.029,13.2998,4.60027,2470.483,2022-3-08T09:28:19Z
2022-03-08T07:29:47Z,42.805,6.029,13.2996,4.60027,2470.483,2022-3-08T09:31:22Z
2022-03-08T07:32:50Z,42.805,6.029,13.2999,4.60026,2470.507,2022-3-08T09:34:26Z
2022-03-08T07:35:53Z,42.805,6.029,13.2996,4.60027,2470.52,2022-3-08T09:37:29Z
2022-03-08T07:38:56Z,42.805,6.029,13.2996,4.60026,2470.53,2022-3-08T09:40:32Z
2022-03-08T07:42:00Z,42.805,6.029,13.2997,4.60026,2470.52,2022-3-08T09:43:35Z
2022-03-08T07:45:03Z,42.805,6.029,13.2996,4.60026,2470.46,2022-3-08T09:46:38Z
2022-03-08T07:48:06Z,42.805,6.029,13.2999,4.60027,2470.52,2022-3-08T09:49:41Z
2022-03-08T07:51:09Z,42.805,6.029,13.2996,4.60027,2470.544,2022-3-08T09:52:44Z
2022-03-08T07:54:12Z,42.805,6.029,13.2995,4.60027,2470.544,2022-3-08T09:55:47Z
2022-03-08T07:57:15Z,42.805,6.029,13.2998,4.60026,2470.544,2022-3-08T09:58:50Z
2022-03-08T08:00:18Z,42.805,6.029,13.2998,4.60026,2470.544,2022-3-08T10:01:54Z
2022-03-08T08:03:21Z,42.805,6.029,13.2999,4.60026,2470.553,2022-3-08T10:04:57Z
2022-03-08T08:06:25Z,42.805,6.029,13.2996,4.60026,2470.544,2022-3-08T10:08:00Z
2022-03-08T08:09:28Z,42.805,6.029,13.2996,4.60027,2470.507,2022-3-08T10:11:03Z
2022-03-08T08:12:31Z,42.805,6.029,13.2996,4.60028,2470.507,2022-3-08T10:14:06Z
2022-03-08T08:15:34Z,42.805,6.029,13.2994,4.60027,2470.53,2022-3-08T10:17:09Z
2022-03-08T08:18:37Z,42.805,6.029,13.2998,4.60029,2470.567,2022-3-08T10:20:12Z
2022-03-08T08:21:40Z,42.805,6.029,13.2999,4.60027,2470.53,2022-3-08T10:23:15Z
2022-03-08T08:24:43Z,42.805,6.029,13.2997,4.60028,2470.53,2022-3-08T10:26:19Z
2022-03-08T08:27:46Z,42.805,6.029,13.2998,4.60027,2470.553,2022-3-08T10:29:22Z
2022-03-08T08:30:49Z,42.805,6.029,13.2999,4.60026,2470.591,2022-3-08T10:32:25Z
2022-03-08T08:33:53Z,42.805,6.029,13.2996,4.60027,2470.567,2022-3-08T10:35:28Z
2022-03-08T08:36:56Z,42.805,6.029,13.2996,4.60027,2470.577,2022-3-08T10:38:31Z
2022-03-08T08:39:59Z,42.805,6.029,13.2999,4.60028,2470.567,2022-3-08T10:41:34Z
2022-03-08T08:43:02Z,42.805,6.029,13.2996,4.60029,2470.553,2022-3-08T10:44:37Z
2022-03-08T08:46:05Z,42.805,6.029,13.2996,4.60027,2470.553,2022-3-08T10:47:40Z
2022-03-08T08:49:08Z,42.805,6.029,13.2998,4.60029,2470.591,2022-3-08T10:50:44Z
2022-03-08T08:52:11Z,42.805,6.029,13.2995,4.60029,2470.53,2022-3-08T10:53:47Z
2022-03-08T08:55:14Z,42.805,6.029,13.2995,4.60030,2470.516,2022-3-08T10:56:50Z
2022-03-08T08:58:18Z,42.805,6.029,13.2996,4.60027,2470.567,2022-3-08T10:59:53Z
2022-03-08T09:01:21Z,42.805,6.029,13.2997,4.60027,2470.553,2022-3-08T11:02:56Z
2022-03-08T09:04:24Z,42.805,6.029,13.2999,4.60029,2470.591,2022-3-08T11:05:59Z
2022-03-08T09:07:27Z,42.805,6.029,13.2998,4.60029,2470.577,2022-3-08T11:09:02Z
2022-03-08T09:10:30Z,42.805,6.029,13.2995,4.60027,2470.553,2022-3-08T11:12:05Z
2022-03-08T09:13:33Z,42.805,6.029,13.2997,4.60028,2470.591,2022-3-08T11:15:09Z
2022-03-08T09:16:36Z,42.805,6.029,13.2998,4.60026,2470.591,2022-3-08T11:18:12Z
2022-03-08T09:19:39Z,42.805,6.029,13.2998,4.60027,2470.614,2022-3-08T11:21:15Z
2022-03-08T09:22:43Z,42.805,6.029,13.3003,4.60028,2470.591,2022-3-08T11:24:18Z
2022-03-08T09:25:46Z,42.805,6.029,13.3000,4.60027,2470.577,2022-3-08T11:27:21Z
2022-03-08T09:28:49Z,42.805,6.029,13.2999,4.60028,2470.577,2022-3-08T11:30:24Z
2022-03-08T09:31:52Z,42.805,6.029,13.2999,4.60029,2470.591,2022-3-08T11:33:27Z
2022-03-08T09:34:55Z,42.805,6.029,13.2997,4.60027,2470.577,2022-3-08T11:36:30Z
2022-03-08T09:37:58Z,42.805,6.029,13.2998,4.60029,2470.577,2022-3-08T11:39:34Z
2022-03-08T09:41:01Z,42.805,6.029,13.2998,4.60028,2470.577,2022-3-08T11:42:37Z
2022-03-08T09:44:04Z,42.805,6.029,13.2995,4.60027,2470.577,2022-3-08T11:45:40Z
2022-03-08T09:47:08Z,42.805,6.029,13.2996,4.60028,2470.591,2022-3-08T11:48:43Z
2022-03-08T09:50:11Z,42.805,6.029,13.2999,4.60029,2470.6,2022-3-08T11:51:46Z
2022-03-08T09:53:14Z,42.805,6.029,13.2998,4.60029,2470.6,2022-3-08T11:54:49Z
2022-03-08T09:56:17Z,42.805,6.029,13.2996,4.60030,2470.6,2022-3-08T11:57:52Z
2022-03-08T09:59:20Z,42.805,6.029,13.2998,4.60027,2470.6,2022-3-08T12:00:55Z
2022-03-08T10:02:23Z,42.805,6.029,13.2995,4.60029,2470.614,2022-3-08T12:03:58Z
2022-03-08T10:05:26Z,42.805,6.029,13.2997,4.60028,2470.624,2022-3-08T12:07:02Z
2022-03-08T10:08:29Z,42.805,6.029,13.3000,4.60029,2470.614,2022-3-08T12:10:05Z
2022-03-08T10:11:33Z,42.805,6.029,13.2996,4.60027,2470.6,2022-3-08T12:13:08Z
2022-03-08T10:14:36Z,42.805,6.029,13.2998,4.60029,2470.614,2022-3-08T12:16:11Z
2022-03-08T10:17:39Z,42.805,6.029,13.3000,4.60029,2470.6,2022-3-08T12:19:14Z
2022-03-08T10:20:42Z,42.805,6.029,13.2996,4.60028,2470.614,2022-3-08T12:22:17Z
2022-03-08T10:23:45Z,42.805,6.029,13.2998,4.60028,2470.624,2022-3-08T12:25:20Z
2022-03-08T10:26:48Z,42.805,6.029,13.3000,4.60029,2470.553,2022-3-08T12:28:23Z
2022-03-08T10:29:51Z,42.805,6.029,13.3000,4.60029,2470.6,2022-3-08T12:31:27Z
2022-03-08T10:32:54Z,42.805,6.029,13.3000,4.60028,2470.6,2022-3-08T12:34:30Z
2022-03-08T10:35:58Z,42.805,6.029,13.3000,4.60029,2470.6,2022-3-08T12:37:33Z
2022-03-08T10:39:01Z,42.805,6.029,13.3001,4.60029,2470.614,2022-3-08T12:40:36Z
2022-03-08T10:42:04Z,42.805,6.029,13.2998,4.60027,2470.553,2022-3-08T12:43:39Z
2022-03-08T10:45:07Z,42.805,6.029,13.2999,4.60027,2470.6,2022-3-08T12:46:42Z
2022-03-08T10:48:10Z,42.805,6.029,13.2998,4.60027,2470.637,2022-3-08T12:49:45Z
2022-03-08T10:51:13Z,42.805,6.029,13.2997,4.60028,2470.591,2022-3-08T12:52:48Z
2022-03-08T10:54:16Z,42.805,6.029,13.3000,4.60028,2470.614,2022-3-08T12:55:52Z
2022-03-08T10:57:19Z,42.805,6.029,13.3000,4.60029,2470.6,2022-3-08T12:58:55Z
2022-03-08T11:00:23Z,42.805,6.029,13.2998,4.60028,2470.577,2022-3-08T13:01:58Z
2022-03-08T11:03:26Z,42.805,6.029,13.3000,4.60028,2470.637,2022-3-08T13:05:01Z
2022-03-08T11:06:29Z,42.805,6.029,13.2998,4.60028,2470.6,2022-3-08T13:08:04Z
2022-03-08T11:09:32Z,42.805,6.029,13.2999,4.60028,2470.567,2022-3-08T13:11:07Z
2022-03-08T11:12:35Z,42.805,6.029,13.2996,4.60027,2470.591,2022-3-08T13:14:10Z
2022-03-08T11:15:38Z,42.805,6.029,13.2998,4.60027,2470.586,2022-3-08T13:17:13Z
2022-03-08T11:18:41Z,42.805,6.029,13.2992,4.60028,2470.6,2022-3-08T13:20:17Z
2022-03-08T11:21:44Z,42.805,6.029,13.2998,4.60029,2470.553,2022-3-08T13:23:20Z
2022-03-08T11:24:48Z,42.805,6.029,13.3000,4.60027,2470.577,2022-3-08T13:26:23Z
2022-03-08T11:27:51Z,42.805,6.029,13.3000,4.60028,2470.614,2022-3-08T13:29:26Z
2022-03-08T11:30:54Z,42.805,6.029,13.2994,4.60029,2470.577,2022-3-08T13:32:29Z
2022-03-08T11:33:57Z,42.805,6.029,13.2999,4.60029,2470.591,2022-3-08T13:35:32Z
2022-03-08T11:37:00Z,42.805,6.029,13.3000,4.60028,2470.577,2022-3-08T13:38:35Z
2022-03-08T11:40:03Z,42.805,6.029,13.3000,4.60028,2470.624,2022-3-08T13:41:38Z
2022-03-08T11:43:06Z,42.805,6.029,13.2998,4.60028,2470.567,2022-3-08T13:44:42Z
2022-03-08T11:46:09Z,42.805,6.029,13.2994,4.60029,2470.577,2022-3-08T13:47:45Z
2022-03-08T11:49:12Z,42.805,6.029,13.2999,4.60029,2470.577,2022-3-08T13:50:48Z
2022-03-08T11:52:16Z,42.805,6.029,13.2996,4.60027,2470.591,2022-3-08T13:53:51Z
2022-03-08T11:55:19Z,42.805,6.029,13.2997,4.60028,2470.553,2022-3-08T13:56:54Z
2022-03-08T11:58:22Z,42.805,6.029,13.2999,4.60028,2470.553,2022-3-08T13:59:57Z
2022-03-08T12:01:25Z,42.805,6.029,13.3000,4.60028,2470.577,2022-3-08T14:03:00Z
2022-03-08T12:04:28Z,42.805,6.029,13.2997,4.60029,2470.577,2022-3-08T14:06:03Z
2022-03-08T12:07:31Z,42.805,6.029,13.2999,4.60028,2470.577,2022-3-08T14:09:07Z
2022-03-08T12:10:34Z,42.805,6.029,13.2998,4.60029,2470.567,2022-3-08T14:12:10Z
2022-03-08T12:13:37Z,42.805,6.029,13.2995,4.60028,2470.591,2022-3-08T14:15:13Z
2022-03-08T12:16:41Z,42.805,6.029,13.2999,4.60029,2470.591,2022-3-08T14:18:16Z
2022-03-08T12:19:44Z,42.805,6.029,13.2998,4.60028,2470.577,2022-3-08T14:21:19Z
2022-03-08T12:22:47Z,42.805,6.029,13.2999,4.60027,2470.577,2022-3-08T14:24:22Z
2022-03-08T12:25:50Z,42.805,6.029,13.2998,4.60028,2470.591,2022-3-08T14:27:25Z
2022-03-08T12:28:53Z,42.805,6.029,13.2999,4.60029,2470.553,2022-3-08T14:30:28Z
2022-03-08T12:31:56Z,42.805,6.029,13.2998,4.60029,2470.567,2022-3-08T14:33:32Z
2022-03-08T12:34:59Z,42.805,6.029,13.2999,4.60032,2470.567,2022-3-08T14:36:35Z
2022-03-08T12:38:02Z,42.805,6.029,13.3000,4.60029,2470.553,2022-3-08T14:39:38Z
2022-03-08T12:41:06Z,42.805,6.029,13.2997,4.60029,2470.539,2022-3-08T14:42:41Z
2022-03-08T12:44:09Z,42.805,6.029,13.2996,4.60029,2470.567,2022-3-08T14:45:44Z
2022-03-08T12:47:12Z,42.805,6.029,13.3000,4.60029,2470.544,2022-3-08T14:48:47Z
2022-03-08T12:50:15Z,42.805,6.029,13.2998,4.60029,2470.553,2022-3-08T14:51:50Z
2022-03-08T12:53:18Z,42.805,6.029,13.2999,4.60028,2470.567,2022-3-08T14:54:53Z
2022-03-08T12:56:21Z,42.805,6.029,13.3000,4.60029,2470.553,2022-3-08T14:57:57Z
2022-03-08T12:59:24Z,42.805,6.029,13.2996,4.60029,2470.53,2022-3-08T15:01:00Z
2022-03-08T13:02:27Z,42.805,6.029,13.2999,4.60027,2470.52,2022-3-08T15:04:03Z
2022-03-08T13:05:31Z,42.805,6.029,13.2998,4.60029,2470.52,2022-3-08T15:07:06Z
2022-03-08T13:08:34Z,42.805,6.029,13.2997,4.60028,2470.544,2022-3-08T15:10:09Z
2022-03-08T13:11:37Z,42.805,6.029,13.2998,4.60028,2470.553,2022-3-08T15:13:12Z
2022-03-08T13:14:40Z,42.805,6.029,13.2998,4.60028,2470.553,2022-3-08T15:16:15Z
2022-03-08T13:17:43Z,42.805,6.029,13.2996,4.60027,2470.553,2022-3-08T15:19:18Z
2022-03-08T13:20:46Z,42.805,6.029,13.2997,4.60028,2470.53,2022-3-08T15:22:22Z
2022-03-08T13:23:49Z,42.805,6.029,13.3000,4.60029,2470.567,2022-3-08T15:25:25Z
2022-03-08T13:26:52Z,42.805,6.029,13.2998,4.60028,2470.544,2022-3-08T15:28:28Z
2022-03-08T13:29:56Z,42.805,6.029,13.3001,4.60029,2470.53,2022-3-08T15:31:31Z
2022-03-08T13:32:59Z,42.805,6.029,13.3002,4.60029,2470.53,2022-3-08T15:34:34Z
2022-03-08T13:36:02Z,42.805,6.029,13.2999,4.60028,2470.507,2022-3-08T15:37:37Z
2022-03-08T13:39:05Z,42.805,6.029,13.2997,4.60027,2470.52,2022-3-08T15:40:40Z
2022-03-08T13:42:08Z,42.805,6.029,13.2998,4.60027,2470.516,2022-3-08T15:43:43Z
2022-03-08T13:45:11Z,42.805,6.029,13.3000,4.60028,2470.53,2022-3-08T15:46:46Z
2022-03-08T13:48:14Z,42.805,6.029,13.3000,4.60027,2470.52,2022-3-08T15:49:50Z
2022-03-08T13:51:17Z,42.805,6.029,13.2998,4.60029,2470.507,2022-3-08T15:52:53Z
2022-03-08T13:54:21Z,42.805,6.029,13.2999,4.60029,2470.53,2022-3-08T15:55:56Z
2022-03-08T13:57:24Z,42.805,6.029,13.2999,4.60027,2470.53,2022-3-08T15:58:59Z
2022-03-08T14:00:27Z,42.805,6.029,13.2998,4.60028,2470.53,2022-3-08T16:02:02Z
2022-03-08T14:03:30Z,42.805,6.029,13.2996,4.60028,2470.53,2022-3-08T16:05:05Z
2022-03-08T14:06:33Z,42.805,6.029,13.2996,4.60027,2470.52,2022-3-08T16:08:08Z
2022-03-08T14:09:36Z,42.805,6.029,13.2998,4.60027,2470.483,2022-3-08T16:11:11Z
2022-03-08T14:12:39Z,42.805,6.029,13.2993,4.60027,2470.53,2022-3-08T16:14:15Z
2022-03-08T14:15:42Z,42.805,6.029,13.2997,4.60027,2470.483,2022-3-08T16:17:18Z
2022-03-08T14:18:46Z,42.805,6.029,13.2999,4.60029,2470.52,2022-3-08T16:20:21Z
2022-03-08T14:21:49Z,42.805,6.029,13.2999,4.60029,2470.483,2022-3-08T16:23:24Z
2022-03-08T14:24:52Z,42.805,6.029,13.2998,4.60029,2470.497,2022-3-08T16:26:27Z
2022-03-08T14:27:55Z,42.805,6.029,13.3000,4.60027,2470.507,2022-3-08T16:29:30Z
2022-03-08T14:30:58Z,42.805,6.029,13.2997,4.60028,2470.483,2022-3-08T16:32:33Z
2022-03-08T14:34:01Z,42.805,6.029,13.2998,4.60030,2470.497,2022-3-08T16:35:36Z
2022-03-08T14:37:04Z,42.805,6.029,13.3000,4.60028,2470.507,2022-3-08T16:38:40Z
2022-03-08T14:40:07Z,42.805,6.029,13.3002,4.60029,2470.474,2022-3-08T16:41:43Z
2022-03-08T14:43:11Z,42.805,6.029,13.3000,4.60029,2470.507,2022-3-08T16:44:46Z
2022-03-08T14:46:14Z,42.805,6.029,13.2997,4.60029,2470.497,2022-3-08T16:47:49Z
2022-03-08T14:49:17Z,42.805,6.029,13.2997,4.60028,2470.497,2022-3-08T16:50:52Z
2022-03-08T14:52:20Z,42.805,6.029,13.2998,4.60029,2470.497,2022-3-08T16:53:55Z
2022-03-08T14:55:23Z,42.805,6.029,13.2998,4.60029,2470.483,2022-3-08T16:56:58Z
2022-03-08T14:58:26Z,42.805,6.029,13.2998,4.60029,2470.483,2022-3-08T17:00:01Z
2022-03-08T15:01:29Z,42.805,6.029,13.2995,4.60028,2470.52,2022-3-08T17:03:05Z
2022-03-08T15:04:32Z,42.805,6.029,13.3000,4.60029,2470.507,2022-3-08T17:06:08Z
2022-03-08T15:07:35Z,42.805,6.029,13.2998,4.60027,2470.474,2022-3-08T17:09:11Z
2022-03-08T15:10:39Z,42.805,6.029,13.2996,4.60028,2470.483,2022-3-08T17:12:14Z
2022-03-08T15:13:42Z,42.805,6.029,13.2998,4.60028,2470.497,2022-3-08T17:15:17Z